Weather in Forde

Norway     61°27′08″N   5°51′07″E
temp.,
°C
wind,
m/s
gust,
m/s
humid.,
%
clouds,
%
prec.,
mm/h
press.,
hPa
HPBL,
m
17 april, sat
sat1723:00−1e22752 0.0 103415
02:00−1e22702 0.0 103422
05:00−3e22732 0.0 103427
08:00−1e22670 0.0 103580
11:00+4e22560 0.0 1033294
14:00+6e21480 0.0 1033585
17:00+7e22490 0.0 1031569
20:00+4e22730 0.0 103136
18 april, sun
sun1823:00+1e22751 0.0 103218
02:00+1e22733 0.0 103220
05:00+1ese22753 0.0 103125
08:00+3e23705 0.0 103083
11:00+7ese22555 0.0 1028249
14:00+10se11504 0.0 1028515
17:00+11se12495 0.0 1027841
20:00+8e11675 0.0 102881
19 april, mon
mon1923:00+5ese11765 0.0 102910
02:00+3ese22745 0.0 102915
05:00+2ese228067 0.0 102823
08:00+4ese237922 0.0 102884
11:00+9ese225933 0.0 1026276
14:00+12se23488 0.0 10251078
17:00+12sse234993 0.0 10231108
20:00+10ese226288 0.0 1023165
20 april, tue
tue2023:00+8ese2270100 0.0 102249
02:00+7se2273100 0.0 102125
05:00+6sse2278100 0.0 102027
08:00+6se227869 0.0 1018104
11:00+9sse246168 0.0 1016700
14:00+9ssw3659100 0.0 10141459
17:00+5s2588100 2.9 1013599
20:00+6s1583100 3.9 10101054
21 april, wed
wed2123:00+1wsw34100100 7.3 1013194
02:00+1wnw2399100 9.8 1013167
05:000wnw2397100 0.5 1014182
08:000nw2487100 0.8 1014303
11:00+1nnw256365 0.1 10161245
14:00+3nnw255792 0.1 10161403
17:00+4n385338 0.1 10171601
20:00+3n36665 0.1 1019761